Zurück zum Katalog

COSMOS 1579 COOLANT

AktivLEO
NORAD 26521·DEBRIS·🇷🇺 Russia

Gestartet Jun 29, 1984 von Baikonur Cosmodrome

Loading…

Nächste Überflüge (nächste 24 Stunden)

TLE

AlterndSource: Space-Track

Epoche: Sep 11, 2026, 22:19 UTC

1 26521U 84069N   26254.93014437  .00000045  00000-0  10473-3 0  9990
2 26521  65.0491   5.9328 0053579 319.7672  39.9432 13.92013726660066

Verfolge COSMOS 1579 COOLANT in Echtzeit mit AllMySat

Download on the App Store